[[{"header":{"parameterUnit":"m.s-1","parameterCategory":1,"la1":30.2991,"la2":30.254,"lo1":-89.0895,"lo2":-89.0444,"dy":0.0017,"dx":0.0017,"nx":28,"ny":28,"refTime":"2025-01-21T03:00:00:Z","depth":0,"parameterNumber":2,"parameterNumberName":"U-component_of_WINDS"},"data":[0,0,0,0,0,0,0,0,0,0,0,0,0,0,0,0,0,0,0,0,0,0,0,0,0,0,0,0,0,0,0,0,0,0,0,0,0,0,0,0,0,0,0,0,0,0,0,0,0,0,0,0,0,0,0,0,0,0,-1.8197,-1.8198,0,-1.8296,-1.8297,-1.8298,-1.8204,-1.82,-1.8196,-1.8193,-1.8296,-1.8302,-1.8308,0,0,0,0,0,0,0,0,0,0,0,0,0,-1.7926,-1.7931,-1.8196,-1.8198,-1.8199,-1.8296,-1.8297,-1.8298,-1.8205,-1.82,-1.8195,-1.8191,-1.8294,-1.8302,-1.8309,0,0,0,0,0,0,0,0,0,0,0,0,0,-1.8036,-1.7933,-1.8196,-1.8164,-1.8162,-1.8295,-1.8297,-1.8299,-1.8206,-1.82,-1.8194,-1.8189,-1.8292,-1.8301,-1.831,-1.8481,0,0,-1.8339,-1.8343,0,0,0,0,0,0,0,0,-1.803,-1.8046,-1.8167,-1.8166,-1.8164,-1.8232,-1.8239,-1.836,-1.8207,-1.8189,-1.8193,-1.8186,-1.8279,-1.8289,-1.8321,-1.8486,-1.849,-1.834,-1.8345,-1.8349,-1.8352,0,0,0,0,0,0,0,-1.8022,-1.8041,-1.8236,-1.8169,-1.8167,-1.8144,-1.8154,-1.8262,-1.8265,-1.819,-1.8184,-1.8197,-1.8277,-1.8312,-1.8322,-1.8492,-1.8339,-1.8348,-1.8354,-1.8357,-1.8802,-1.8808,0,0,0,0,0,0,-1.8018,-1.8035,-1.8233,-1.8239,-1.8082,-1.8154,-1.8164,-1.8216,-1.8263,-1.8265,-1.8201,-1.8192,-1.8298,-1.8311,-1.8326,-1.853,-1.8349,-1.8358,-1.8363,-1.8796,-1.8804,-1.881,0,0,0,0,0,0,-1.8013,-1.8037,-1.8229,-1.8135,-1.8158,-1.8164,-1.8223,-1.8221,-1.8255,-1.8272,-1.8272,-1.8236,-1.8294,-1.8312,-1.8443,-1.8532,-1.8362,-1.8371,-1.8789,-1.8798,-1.8807,-1.894,0,0,0,0,0,0,-1.8005,-1.8035,-1.8101,-1.8138,-1.8163,-1.8345,-1.8228,-1.8227,-1.8271,-1.826,-1.8304,-1.8306,-1.8291,-1.843,-1.8452,-1.8542,-1.8378,-1.8781,-1.8793,-1.8804,-1.8928,-1.8952,-1.8974,0,0,0,0,0,-1.7996,-1.8134,-1.8104,-1.8129,-1.8245,-1.835,-1.8365,-1.8345,-1.8279,-1.8345,-1.8355,-1.8305,-1.8518,-1.8444,-1.8469,-1.8563,-1.8775,-1.879,-1.8803,-1.8917,-1.8948,-1.8973,0,0,0,0,0,0,-1.8109,-1.8139,-1.8106,-1.826,-1.8303,-1.8334,-1.8417,-1.8378,-1.8441,-1.8428,-1.8401,-1.8411,-1.855,-1.8568,-1.8485,-1.873,-1.8636,-1.8655,-1.8714,-1.8743,-1.8766,-1.876,-1.8386,0,0,0,0,0,-1.8151,-1.8234,-1.8255,-1.839,-1.8413,-1.8411,-1.8456,-1.8437,-1.8481,-1.8499,-1.8519,-1.8564,-1.864,-1.8692,-1.8764,-1.8928,-1.8937,-1.9005,-1.9028,-1.9047,-1.9065,-1.9154,-1.9185,-1.8856,-1.8856,-1.8856,0,0,-1.8241,-1.8267,-1.8321,-1.8413,-1.8444,-1.8531,-1.8428,-1.8524,-1.8588,-1.8513,-1.8639,-1.8655,-1.8702,-1.8851,-1.8917,-1.8871,-1.9157,-1.9064,-1.9079,-1.9088,-1.9171,-1.9203,-1.923,-1.8866,-1.8864,-1.8862,0,0,-1.8449,-1.8476,-1.8592,-1.8624,-1.8672,-1.867,-1.8698,-1.8734,-1.8742,-1.8866,-1.8813,-1.8888,-1.9021,-1.9057,-1.9093,-1.9312,-1.9269,-1.9336,-1.9459,-1.9545,-1.9571,-1.9594,-1.9674,-1.9703,-1.9354,-1.9354,-1.9354,0,-1.8555,-1.8683,-1.8656,-1.8756,-1.8798,-1.8733,-1.885,-1.8883,-1.8952,-1.8983,-1.8929,-1.9094,-1.9121,-1.9278,-1.9331,-1.9362,-1.9393,-1.9333,-1.957,-1.9592,-1.9613,-1.9689,-1.9719,-1.9362,-1.9361,-1.936,-1.9359,0,-1.8811,-1.8901,-1.8988,-1.9056,-1.9107,-1.9215,-1.9205,-1.926,-1.9235,-1.9238,-1.9366,-1.9395,-1.9472,-1.9507,-1.9484,-1.9661,-1.963,-1.9573,-1.9479,-1.9653,-1.9724,-1.9753,-1.9374,-1.9371,-1.9368,-1.9366,0,0,-1.9097,-1.9147,-1.918,-1.921,-1.9257,-1.9326,-1.943,-1.9504,-1.9553,-1.9601,-1.9689,-1.9801,-1.9749,-1.979,-1.9769,-1.9845,-2.0019,-1.9779,-1.978,-1.9825,-2.0216,-2.0261,-2.0295,-1.9988,-1.9994,-1.9998,-2.0213,0,-1.9308,-1.949,-1.9468,-1.9642,-1.9725,-1.9662,-1.9753,-1.9792,-1.9797,-1.9867,-1.9872,-1.9954,-1.9877,-1.9901,-1.9973,-1.9983,-2.0098,-1.9966,-2.0071,-2.0075,-2.0065,-2.0332,-2.038,-2.0582,-2.024,-2.0245,-2.0248,0,-1.958,-1.9639,-1.9821,-1.9855,-1.9889,-1.9971,-2.0037,-2.0105,-2.0147,-2.0145,-2.0189,-2.0155,-2.026,-2.016,-2.0304,-2.0215,-2.0255,-2.0266,-2.0273,-2.0285,-2.0175,-2.0354,-2.0646,-2.0678,-2.0292,-2.0288,-2.0285,0,-1.9774,-1.9897,-2.0023,-2.005,-2.0091,-2.0151,-2.0171,-2.0207,-2.0253,-2.031,-2.0339,-2.0408,-2.0446,-2.05,-2.0485,-2.0413,-2.0633,-2.0531,-2.0635,-2.0636,-2.0688,-2.0685,-2.0993,-2.0709,-2.0708,-2.0708,-2.0707,0,-2.0014,-2.0129,-2.011,-2.0188,-2.0314,-2.0286,-2.0411,-2.0423,-2.0456,-2.0534,-2.0483,-2.0558,-2.0532,-2.0606,-2.0594,-2.0716,-2.0733,-2.0735,-2.0731,-2.0742,-2.0742,-2.0771,-2.0757,-2.0716,-2.0714,-2.0712,-2.0711,0,-2.0253,-2.0245,-2.0378,-2.0405,-2.0415,-2.0507,-2.0531,-2.0603,-2.0602,-2.0703,-2.0724,-2.0724,-2.0808,-2.0797,-2.089,-2.0882,-2.1034,-2.1012,-2.1021,-2.1017,-2.1122,-2.1113,-2.1462,-2.1507,-2.1191,-2.1194,-2.1196,0,-2.0409,-2.0496,-2.0532,-2.0581,-2.0606,-2.0685,-2.0731,-2.0705,-2.0756,-2.0809,-2.0875,-2.0954,-2.1016,-2.1152,-2.116,-2.1231,-2.1211,-2.1328,-2.1222,-2.123,-2.1216,-2.1213,-2.1222,-2.1351,-2.1355,-2.1357,-2.136,0,-2.0688,-2.0679,-2.0747,-2.0814,-2.0871,-2.0922,-2.0969,-2.1011,-2.099,-2.1049,-2.1133,-2.1181,-2.1275,-2.1355,-2.1421,-2.1441,-2.1398,-2.1392,-2.1421,-2.1434,-2.1437,-2.1439,-2.1081,-2.1386,-2.1383,-2.1381,-2.138,-2.1379,-2.0892,-2.0966,-2.1003,-2.1081,-2.1113,-2.1157,-2.1227,-2.1234,-2.1304,-2.1379,-2.1359,-2.1455,-2.1492,-2.1577,-2.1604,-2.1678,-2.1635,-2.1676,-2.1687,-2.1698,-2.1712,-2.1422,-2.169,-2.1689,-2.1688,-2.1687,-2.1687,0,-2.1169,-2.1189,-2.1261,-2.1327,-2.1389,-2.134,-2.1388,-2.1443,-2.1528,-2.1567,-2.1628,-2.1725,-2.1801,-2.1814,-2.1885,-2.1943,-2.1925,-2.1963,-2.196,-2.1966,-2.1745,-2.1714,-2.1976,-2.1976,-2.1976,-2.1976,-2.1976,-2.1976,-2.1321,-2.1445,-2.144,-2.1578,-2.1597,-2.1691,-2.1723,-2.1763,-2.1794,-2.1904,-2.1967,-2.1974,-2.2002,-2.2076,-2.2143,-2.2144,-2.2174,-2.2221,-2.2216,-2.201,-2.1981,-2.1954,-2.1925,-2.2227,-2.2227,-2.243,-2.2432,-2.2434]},{"header":{"parameterUnit":"m.s-1","parameterCategory":1,"la1":30.2991,"la2":30.254,"lo1":-89.0895,"lo2":-89.0444,"dy":0.0017,"dx":0.0017,"nx":28,"ny":28,"refTime":"2025-01-21T03:00:00:Z","depth":0,"parameterNumber":3,"parameterNumberName":"V-component_of_WINDS"},"data":[0,0,0,0,0,0,0,0,0,0,0,0,0,0,0,0,0,0,0,0,0,0,0,0,0,0,0,0,0,0,0,0,0,0,0,0,0,0,0,0,0,0,0,0,0,0,0,0,0,0,0,0,0,0,0,0,0,0,-6.7647,-6.7649,0,-6.7813,-6.7814,-6.7816,-6.7724,-6.7719,-6.7714,-6.771,-6.7873,-6.7881,-6.789,0,0,0,0,0,0,0,0,0,0,0,0,0,-6.7244,-6.7252,-6.7647,-6.7649,-6.7651,-6.7812,-6.7814,-6.7817,-6.7724,-6.7719,-6.7713,-6.7708,-6.787,-6.788,-6.7891,0,0,0,0,0,0,0,0,0,0,0,0,0,-6.7415,-6.7254,-6.7647,-6.7625,-6.7624,-6.7812,-6.7815,-6.7817,-6.7726,-6.7719,-6.7712,-6.7705,-6.7867,-6.7879,-6.7892,-6.8109,0,0,-6.7932,-6.7937,0,0,0,0,0,0,0,0,-6.7405,-6.743,-6.7626,-6.7627,-6.7627,-6.7741,-6.7732,-6.7915,-6.7727,-6.7687,-6.771,-6.7702,-6.7834,-6.7849,-6.7895,-6.8116,-6.8123,-6.7933,-6.794,-6.7946,-6.795,0,0,0,0,0,0,0,-6.7394,-6.7422,-6.7712,-6.7629,-6.7629,-6.7604,-6.7621,-6.7766,-6.7797,-6.769,-6.7684,-6.7705,-6.7833,-6.7883,-6.7898,-6.8126,-6.7932,-6.7944,-6.7952,-6.7957,-6.853,-6.8537,0,0,0,0,0,0,-6.7384,-6.7413,-6.7707,-6.7717,-6.7497,-6.7617,-6.7636,-6.7711,-6.7795,-6.7801,-6.771,-6.77,-6.7864,-6.7883,-6.7904,-6.8161,-6.7946,-6.7958,-6.7965,-6.8522,-6.8531,-6.8539,0,0,0,0,0,0,-6.7376,-6.7411,-6.77,-6.7564,-6.7598,-6.7631,-6.7716,-6.7718,-6.7768,-6.7811,-6.7815,-6.7757,-6.786,-6.7885,-6.8058,-6.8165,-6.7964,-6.7976,-6.8513,-6.8525,-6.8535,-6.8679,0,0,0,0,0,0,-6.7365,-6.7409,-6.7494,-6.7566,-6.7606,-6.7855,-6.7723,-6.7726,-6.7791,-6.7779,-6.7855,-6.7861,-6.7856,-6.8039,-6.8071,-6.8179,-6.7986,-6.8504,-6.8518,-6.8532,-6.8665,-6.8694,-6.8718,0,0,0,0,0,-6.7351,-6.7526,-6.7498,-6.7534,-6.7713,-6.7862,-6.7884,-6.7877,-6.78,-6.7884,-6.7911,-6.7858,-6.8149,-6.8058,-6.8093,-6.8207,-6.8497,-6.8514,-6.8531,-6.8653,-6.8688,-6.8718,0,0,0,0,0,0,-6.7464,-6.7536,-6.7505,-6.771,-6.7781,-6.7846,-6.7951,-6.7915,-6.8007,-6.7992,-6.7977,-6.7995,-6.8174,-6.8207,-6.8105,-6.8419,-6.831,-6.8335,-6.8391,-6.8425,-6.8451,-6.8439,-6.7996,0,0,0,0,0,-6.7513,-6.763,-6.7685,-6.7861,-6.7898,-6.7919,-6.7983,-6.7972,-6.8043,-6.8072,-6.8112,-6.8181,-6.8287,-6.8358,-6.8459,-6.8669,-6.8683,-6.8764,-6.8791,-6.8813,-6.8834,-6.8945,-6.8981,-6.8595,-6.8594,-6.8594,0,0,-6.7615,-6.7669,-6.7743,-6.7885,-6.7938,-6.8057,-6.7945,-6.8076,-6.8163,-6.8091,-6.8257,-6.8289,-6.8364,-6.8557,-6.8643,-6.859,-6.8944,-6.8834,-6.8851,-6.8861,-6.8966,-6.9003,-6.9035,-6.8606,-6.8604,-6.8602,0,0,-6.7862,-6.7916,-6.8067,-6.8123,-6.8205,-6.8217,-6.8254,-6.8324,-6.8343,-6.851,-6.8458,-6.856,-6.8744,-6.88,-6.8853,-6.9119,-6.9073,-6.9152,-6.9292,-6.9401,-6.9431,-6.9458,-6.9551,-6.9585,-6.9173,-6.9173,-6.9173,0,-6.7978,-6.8158,-6.8149,-6.8284,-6.8346,-6.8289,-6.844,-6.8493,-6.8604,-6.8647,-6.8586,-6.8816,-6.8863,-6.9066,-6.9131,-6.9176,-6.9215,-6.9143,-6.9428,-6.9455,-6.9479,-6.9568,-6.9604,-6.9182,-6.9181,-6.918,-6.9179,0,-6.8295,-6.8421,-6.8532,-6.8642,-6.8717,-6.886,-6.887,-6.8946,-6.8928,-6.8946,-6.9114,-6.9169,-6.9279,-6.9326,-6.9309,-6.9526,-6.9491,-6.943,-6.932,-6.9526,-6.9608,-6.9643,-6.9195,-6.9192,-6.9189,-6.9187,0,0,-6.8619,-6.8722,-6.8763,-6.8811,-6.8897,-6.8992,-6.913,-6.9239,-6.9304,-6.9382,-6.9496,-6.9653,-6.9596,-6.9656,-6.9644,-6.9739,-6.9944,-6.9666,-6.9667,-6.9715,-7.0185,-7.023,-7.027,-6.9915,-6.9921,-6.9926,-7.0178,0,-6.8871,-6.9116,-6.9111,-6.9337,-6.945,-6.9396,-6.9516,-6.958,-6.9601,-6.9698,-6.9718,-6.983,-6.9747,-6.9783,-6.9875,-6.99,-7.0039,-6.9882,-7.0018,-7.0023,-7.0001,-7.0314,-7.0363,-7.0598,-7.0211,-7.0216,-7.022,0,-6.9198,-6.9287,-6.9526,-6.9593,-6.964,-6.9749,-6.9847,-6.9942,-7.0012,-7.002,-7.0086,-7.0059,-7.0196,-7.0083,-7.0271,-7.0164,-7.0219,-7.024,-7.0249,-7.0261,-7.0134,-7.0333,-7.0673,-7.0708,-7.0272,-7.0268,-7.0264,0,-6.9408,-6.9588,-6.9754,-6.9797,-6.988,-6.9957,-6.9995,-7.0059,-7.0124,-7.0209,-7.025,-7.035,-7.0404,-7.048,-7.0479,-7.0397,-7.0669,-7.0556,-7.0677,-7.0677,-7.0736,-7.0732,-7.1089,-7.0773,-7.0773,-7.0772,-7.0771,0,-6.9689,-6.9837,-6.9849,-6.9951,-7.0113,-7.0105,-7.0265,-7.0294,-7.0352,-7.0456,-7.0414,-7.0512,-7.0505,-7.0604,-7.0603,-7.0758,-7.0783,-7.0791,-7.0789,-7.0794,-7.0793,-7.083,-7.0813,-7.0781,-7.0779,-7.0778,-7.0776,0,-6.9952,-6.9967,-7.0143,-7.0208,-7.0227,-7.0344,-7.0397,-7.0492,-7.0508,-7.0641,-7.0671,-7.0695,-7.0809,-7.0816,-7.0946,-7.0946,-7.1133,-7.1113,-7.111,-7.1106,-7.1226,-7.1215,-7.1618,-7.167,-7.1322,-7.1325,-7.1328,0,-7.0131,-7.0243,-7.0319,-7.0387,-7.043,-7.054,-7.0606,-7.0601,-7.0671,-7.0759,-7.0843,-7.0953,-7.104,-7.1224,-7.1252,-7.1351,-7.1332,-7.1467,-7.1347,-7.1348,-7.1333,-7.1326,-7.1336,-7.149,-7.1494,-7.1497,-7.15,0,-7.0445,-7.0446,-7.0545,-7.0647,-7.0727,-7.0806,-7.0879,-7.0937,-7.0939,-7.102,-7.1137,-7.1205,-7.1339,-7.1448,-7.1544,-7.1579,-7.154,-7.1537,-7.157,-7.1577,-7.157,-7.1574,-7.1173,-7.1528,-7.1525,-7.1523,-7.1522,-7.152,-7.067,-7.0767,-7.0836,-7.0946,-7.1001,-7.107,-7.1162,-7.119,-7.1288,-7.1398,-7.1387,-7.1516,-7.1581,-7.1706,-7.175,-7.1848,-7.1802,-7.185,-7.1862,-7.1874,-7.1886,-7.1555,-7.1866,-7.1865,-7.1864,-7.1864,-7.1863,0,-7.0981,-7.1023,-7.1125,-7.1229,-7.1315,-7.1272,-7.135,-7.1425,-7.154,-7.1604,-7.1692,-7.1824,-7.1929,-7.1965,-7.2066,-7.2138,-7.2122,-7.2165,-7.2159,-7.2168,-7.1923,-7.1884,-7.2176,-7.2176,-7.2176,-7.2176,-7.2176,-7.2176,-7.1153,-7.1314,-7.1323,-7.1509,-7.1548,-7.1676,-7.1724,-7.1787,-7.1838,-7.1989,-7.2077,-7.21,-7.2152,-7.2257,-7.235,-7.2357,-7.2396,-7.2446,-7.2446,-7.2216,-7.2185,-7.2155,-7.2118,-7.2455,-7.2455,-7.2682,-7.2685,-7.2686]}]]